FORESAIL 1 (52766 NORAD) Tracking and Keplerian Element Data

This shows tracking and keplerian element data for the satellite.

Feedback or suggestion? Click here.




ElementValue
Catalog52766
NameFORESAIL 1
Epoch Orbit712
Epoch Day192.82993623
Epoch Year2022
RAAN307.244
Inclination97.5245
Eccentricity0.0015229
Argument of Perigee72.6183
Mean Anonmoly287.6712
Mean Motion15.134186
Decay Rate3.371E-05
L11 52766U 22057AL 22192.82993623 .00003371 00000+0 19191-3 0 9997
L22 52766 97.5245 307.2440 0015229 72.6183 287.6712 15.13418600 7128

Live tracking and technical data element details for FORESAIL 1 (NORAD 52766). FORESAIL 1 can be tracked NOW for your location showing map with azimuth and elevation plus other details from your city location.

Track the satellite on the map from your city or location and see movement details for azimuth, elevation, latitude, longitude, range, height, and movement on the map or in text.







IsCatalogInMostPopularTable: catalog: 52766, numindb: 6
Update: records affected: 1



GetName: 52766 FORESAIL 1

Hit Count: updated at: Sun, 14 Aug 2022 00:20:27 GMT